DECAYED

STARLINK-2233, 48579 (Decayed)

Orbit data source: Space-Track

STARLINK-2233, 48579 was a payload satellite owned by SpaceX/Seattle (US) in LEO that was launched on Sat, 15 May 2021 UTC via an FALCON 9 launch vehicle from the Air Force Eastern Test Range (AFETR). Payload-class satellites include a variety of spacecraft equipped with specific instruments for various scientific and technological missions. These include communications satellites like Starlink; space stations such as the ISS; scientific satellites like the Hubble; Earth observation satellites from companies like Planet Labs, Umbra, and HawkEye 360; GPS; miniature CubeSats for education and research; and military/defense satellites.

Not visible in the next 10 days
Identifier
48579, 2021-041AC
Orbit
Decayed
Last TLE update
1 year ago
Origin
Manufacturer
SpaceX/Seattle
Mission
Decayed Commercial Communications
Bus & Motor
STARLINK, Unknown motor
Mass
260 kg wet, ~248 kg dry
Launch date (UTC)
2021-05-15 (4 years ago)
Launch vehicle
FALCON 9
Launch site
Air Force Eastern Test Range (AFETR)
Object type
Payload
Rocket body
Debris
Shape & HBR
Box + 1 Pan, 8.86 m
Radar Cross Section
13.562 m², Large (>1 m²)

Expand to show TLE details & history

TLE from 1 year ago
0 STARLINK-2233
1 48579U 21041AC  24135.67775729  .10980173  11893-4  53538-2 0  9997
2 48579  53.0426 206.0473 0005130 326.1498 168.5965 16.20378515165931
Epoch: 2024-05-14T16:15Z
Definitive object data (Epoch: 2024-05-14T16:15:58.229Z)
Latitude
34.68661°
Longitude
-122.02377°
Altitude
224.343 km
Speed
7.775 km/s
True Right ascension
23h 39m 27s
True Declination
34° 30' 46"
Sunlit
Object was in daylight at TLE epoch
Visualization observer readout
Visualization observer readout
Orbital elements
Apogee altitude
222.194 km
Perigee altitude
215.426 km
Semi-major axis
6,596.947 km
Eccentricity
0.000513
Inclination
53.0426°
RAAN
206.0473°
Arg. of periapsis
326.1498°
True anomaly
168.60812°
Mean anomaly
168.5965°
Eccentric anomaly
168.60231°
Mean motion
4.05069 °/min
BSTAR
0.0053538
Orbital period
88.87 mins
Loading maneuver chart data...
Loading SW <> Apogee altitude chart data...
Loading historical data...
Loading historical data...
Loading historical data...
Loading historical data...
Loading historical data...
Loading historical data...
Loading historical data...

STARLINK-2233 Visibility forecast

Observer location: undefined°, undefined°

This satellite is decayed
Span
Click to sort rows by Start time (UTC) header in descending order
Start Az.
Max El. time (UTC)
Max El. Az.
Max El.
End time (UTC)
End Az.
|